When you browse on this site, cookies collect data to enhance your experience and personalize the content and advertising you see.
Visit our Privacy Policy to learn more. By continuing to use the site, you agree to this use of cookies and data.
  • In United Kingdom
  • List of Countries
  • For 7 days
  • Water Temperature
  • Satellite Maps
  • Weather Map
  • Weather Widgets
  • user-avatar
    Login

    Hourly Weather Holhol

    Today, 20 March, Wednesday

    Time Temperature Precipitation Wind Pressure Humidity
    00:00 +25°C° 0 mm 3 mps 714 mmHg 76%
    01:00 +25°C° 0 mm 3 mps 713 mmHg 78%
    02:00 +25°C° 0 mm 3 mps 713 mmHg 80%
    03:00 +24°C° 0 mm 3 mps 713 mmHg 82%
    04:00 +24°C° 0 mm 3 mps 713 mmHg 82%
    05:00 +24°C° 0 mm 3 mps 713 mmHg 83%
    06:00 +24°C° 0 mm 3 mps 713 mmHg 84%
    07:00 +25°C° 0 mm 3 mps 713 mmHg 77%
    08:00 +26°C° 0 mm 4 mps 714 mmHg 70%
    09:00 +26°C° 0 mm 4 mps 714 mmHg 64%
    10:00 +28°C° 0 mm 5 mps 714 mmHg 57%
    11:00 +29°C° 0 mm 5 mps 714 mmHg 50%
    12:00 +32°C° 0 mm 6 mps 714 mmHg 43%
    13:00 +32°C° 0 mm 6 mps 713 mmHg 44%
    14:00 +32°C° 0 mm 6 mps 713 mmHg 44%
    15:00 +32°C° 0 mm 6 mps 712 mmHg 44%
    16:00 +30°C° 0 mm 6 mps 712 mmHg 49%
    17:00 +29°C° 0 mm 5 mps 712 mmHg 54%
    18:00 +28°C° 0 mm 5 mps 712 mmHg 59%
    19:00 +27°C° 0 mm 4 mps 712 mmHg 63%
    20:00 +27°C° 0 mm 4 mps 712 mmHg 68%
    21:00 +26°C° 0 mm 3 mps 712 mmHg 73%
    22:00 +26°C° 0 mm 3 mps 712 mmHg 75%
    23:00 +26°C° 0 mm 3 mps 712 mmHg 77%

    Tomorrow, 21 March, Thursday

    Time Temperature Precipitation Wind Pressure Humidity
    00:00 +26°C° 0 mm 3 mps 712 mmHg 79%
    01:00 +25°C° 0 mm 3 mps 712 mmHg 81%
    02:00 +25°C° 0 mm 3 mps 712 mmHg 82%
    03:00 +25°C° 0 mm 3 mps 711 mmHg 83%
    04:00 +25°C° 0 mm 3 mps 712 mmHg 82%
    05:00 +25°C° 0 mm 4 mps 712 mmHg 81%
    06:00 +25°C° 0 mm 4 mps 713 mmHg 80%
    07:00 +26°C° 0 mm 4 mps 713 mmHg 75%
    08:00 +26°C° 0 mm 4 mps 714 mmHg 69%
    09:00 +27°C° 0 mm 5 mps 715 mmHg 64%
    10:00 +28°C° 0 mm 5 mps 714 mmHg 59%
    11:00 +30°C° 0 mm 6 mps 714 mmHg 53%
    12:00 +32°C° 0 mm 7 mps 714 mmHg 48%
    13:00 +32°C° 0 mm 7 mps 713 mmHg 49%
    14:00 +32°C° 0 mm 7 mps 712 mmHg 50%
    15:00 +32°C° 0 mm 7 mps 712 mmHg 51%
    16:00 +30°C° 0 mm 6 mps 712 mmHg 56%
    17:00 +29°C° 0 mm 6 mps 711 mmHg 61%
    18:00 +28°C° 0 mm 5 mps 711 mmHg 67%
    19:00 +27°C° 0 mm 5 mps 712 mmHg 70%
    20:00 +27°C° 0 mm 4 mps 712 mmHg 74%
    21:00 +26°C° 0 mm 4 mps 713 mmHg 77%
    22:00 +26°C° 0 mm 4 mps 713 mmHg 78%
    23:00 +26°C° 0 mm 4 mps 713 mmHg 79%

    Day after tomorrow, 22 March, Friday

    Time Temperature Precipitation Wind Pressure Humidity
    00:00 +26°C° 0 mm 4 mps 713 mmHg 79%
    01:00 +26°C° 0 mm 3 mps 712 mmHg 80%
    02:00 +26°C° 0 mm 3 mps 712 mmHg 81%
    03:00 +25°C° 0 mm 3 mps 712 mmHg 81%
    04:00 +25°C° 0 mm 3 mps 712 mmHg 82%
    05:00 +25°C° 0 mm 3 mps 712 mmHg 82%
    06:00 +25°C° 0 mm 3 mps 713 mmHg 83%
    07:00 +26°C° 0 mm 3 mps 714 mmHg 79%
    08:00 +26°C° 0 mm 3 mps 714 mmHg 74%
    09:00 +27°C° 0 mm 4 mps 715 mmHg 70%
    10:00 +28°C° 0 mm 4 mps 715 mmHg 62%
    11:00 +30°C° 0 mm 5 mps 715 mmHg 54%
    12:00 +32°C° 0 mm 5 mps 714 mmHg 46%
    13:00 +32°C° 0 mm 5 mps 713 mmHg 46%
    14:00 +32°C° 0 mm 6 mps 713 mmHg 45%
    15:00 +33°C° 0 mm 6 mps 712 mmHg 45%
    16:00 +32°C° 0 mm 6 mps 712 mmHg 51%
    17:00 +30°C° 0 mm 5 mps 711 mmHg 57%
    18:00 +28°C° 0 mm 5 mps 711 mmHg 63%
    19:00 +28°C° 0 mm 4 mps 712 mmHg 67%
    20:00 +27°C° 0 mm 4 mps 713 mmHg 72%
    21:00 +27°C° 0 mm 3 mps 713 mmHg 76%
    22:00 +27°C° 0 mm 3 mps 713 mmHg 78%
    23:00 +26°C° 0 mm 3 mps 713 mmHg 79%

    23 March, Saturday

    Time Temperature Precipitation Wind Pressure Humidity
    00:00 +26°C° 0 mm 3 mps 713 mmHg 80%
    01:00 +26°C° 0 mm 3 mps 713 mmHg 81%
    02:00 +26°C° 0 mm 3 mps 712 mmHg 81%
    03:00 +26°C° 0 mm 3 mps 712 mmHg 82%
    04:00 +25°C° 0 mm 3 mps 712 mmHg 82%
    05:00 +25°C° 0 mm 3 mps 713 mmHg 82%
    06:00 +25°C° 0 mm 3 mps 713 mmHg 82%
    07:00 +26°C° 0 mm 3 mps 714 mmHg 78%
    08:00 +27°C° 0 mm 3 mps 714 mmHg 74%
    09:00 +27°C° 0 mm 4 mps 715 mmHg 69%
    10:00 +29°C° 0 mm 4 mps 714 mmHg 63%
    11:00 +30°C° 0 mm 5 mps 714 mmHg 56%
    12:00 +32°C° 0 mm 6 mps 714 mmHg 49%
    13:00 +32°C° 0 mm 6 mps 713 mmHg 50%
    14:00 +32°C° 0 mm 6 mps 712 mmHg 51%
    15:00 +32°C° 0 mm 6 mps 711 mmHg 52%
    16:00 +30°C° 0 mm 5 mps 711 mmHg 55%
    17:00 +29°C° 0 mm 5 mps 711 mmHg 59%
    18:00 +28°C° 0 mm 5 mps 711 mmHg 63%
    19:00 +28°C° 0 mm 4 mps 712 mmHg 67%
    20:00 +27°C° 0 mm 4 mps 712 mmHg 71%
    21:00 +27°C° 0 mm 3 mps 713 mmHg 74%
    22:00 +27°C° 0 mm 3 mps 713 mmHg 76%
    23:00 +26°C° 0 mm 3 mps 712 mmHg 78%

    24 March, Sunday

    Time Temperature Precipitation Wind Pressure Humidity
    00:00 +26°C° 0 mm 3 mps 712 mmHg 81%
    01:00 +26°C° 0 mm 3 mps 712 mmHg 81%
    02:00 +26°C° 0 mm 3 mps 711 mmHg 81%
    03:00 +26°C° 0 mm 3 mps 711 mmHg 81%
    04:00 +26°C° 0 mm 3 mps 711 mmHg 82%
    05:00 +26°C° 0 mm 3 mps 712 mmHg 82%
    06:00 +26°C° 0 mm 3 mps 712 mmHg 82%
    07:00 +26°C° 0 mm 4 mps 713 mmHg 80%
    08:00 +26°C° 0 mm 4 mps 713 mmHg 77%
    09:00 +27°C° 0 mm 5 mps 714 mmHg 75%
    10:00 +27°C° 0 mm 5 mps 713 mmHg 72%
    11:00 +28°C° 0 mm 5 mps 712 mmHg 69%
    12:00 +28°C° 0 mm 5 mps 712 mmHg 66%
    13:00 +29°C° 0 mm 5 mps 711 mmHg 64%
    14:00 +30°C° 0 mm 5 mps 711 mmHg 62%
    15:00 +30°C° 0 mm 6 mps 710 mmHg 60%
    16:00 +29°C° 0 mm 5 mps 710 mmHg 64%
    17:00 +29°C° 0 mm 5 mps 710 mmHg 69%
    18:00 +28°C° 0 mm 5 mps 710 mmHg 74%
    19:00 +27°C° 0 mm 4 mps 711 mmHg 75%
    20:00 +27°C° 0 mm 4 mps 711 mmHg 77%
    21:00 +27°C° 0 mm 3 mps 711 mmHg 79%
    22:00 +26°C° 0 mm 3 mps 711 mmHg 80%
    23:00 +26°C° 0 mm 3 mps 711 mmHg 81%

    25 March, Monday

    Time Temperature Precipitation Wind Pressure Humidity
    00:00 +26°C° 0 mm 3 mps 711 mmHg 82%
    01:00 +26°C° 0 mm 3 mps 710 mmHg 82%
    02:00 +26°C° 0 mm 3 mps 710 mmHg 82%
    03:00 +26°C° 0 mm 3 mps 710 mmHg 82%
    04:00 +26°C° 0 mm 3 mps 710 mmHg 83%
    05:00 +25°C° 0 mm 3 mps 711 mmHg 84%
    06:00 +25°C° 0 mm 3 mps 711 mmHg 85%
    07:00 +26°C° 0 mm 3 mps 712 mmHg 82%
    08:00 +26°C° 0 mm 4 mps 712 mmHg 79%
    09:00 +27°C° 0 mm 4 mps 713 mmHg 76%
    10:00 +27°C° 0 mm 5 mps 712 mmHg 74%
    11:00 +28°C° 0 mm 5 mps 712 mmHg 72%
    12:00 +28°C° 0 mm 5 mps 711 mmHg 69%
    13:00 +29°C° 0 mm 5 mps 711 mmHg 67%
    14:00 +30°C° 0 mm 6 mps 710 mmHg 65%
    15:00 +30°C° 0 mm 6 mps 709 mmHg 63%
    16:00 +29°C° 0 mm 6 mps 710 mmHg 68%
    17:00 +29°C° 0 mm 5 mps 710 mmHg 72%
    18:00 +28°C° 0 mm 5 mps 710 mmHg 76%
    19:00 +28°C° 0 mm 5 mps 710 mmHg 78%
    20:00 +27°C° 0 mm 5 mps 711 mmHg 79%
    21:00 +27°C° 0 mm 4 mps 711 mmHg 81%
    22:00 +27°C° 0 mm 4 mps 711 mmHg 82%
    23:00 +27°C° 0 mm 4 mps 711 mmHg 82%
    Show more